Powrót do katalogu

ORBCOMM FM 115

AktywnyŁącznośćLEO
NORAD 41186·PAYLOAD·🇺🇸 United States

Wystrzelony Dec 22, 2015 z Cape Canaveral Space Force Station

Loading…

Następne Przeloty (najbliższe 24 godziny)

TLE

ŚwieżeSource: Space-Track

Epoka: Sep 14, 2026, 03:13 UTC

1 41186U 15081H   26257.13432665  .00000340  00000-0  99116-4 0  9994
2 41186  46.9992  38.9124 0000862 322.2209  37.8618 14.63358741574241

Śledź ORBCOMM FM 115 w czasie rzeczywistym z AllMySat

Download on the App Store